Weather History for Lakehurst NAS, NJ

Change the Weather History Date:

Sunday, May 20, 2012

  Actual Average Record
Temperature  
Mean Temperature 62 °F -  
Max Temperature 59 °F 68 °F 89 °F (1998)
Min Temperature 48 °F 51 °F 46 °F (2002)
Degree Days  
Heating Degree Days 4    
Growing Degree Days 12 (Base 50)    
Moisture  
Dew Point 51 °F    
Average Humidity 66    
Maximum Humidity 90    
Minimum Humidity 21    
Precipitation  
Precipitation 0.00 in - - ()
Sea Level Pressure  
Sea Level Pressure 30.19 in    
Wind  
Wind Speed 8 mph (ENE)    
Max Wind Speed 18 mph    
Max Gust Speed 26 mph    
Visibility 10 miles    
Events      
Averages and records for this station are not official NWS values.
T = Trace of Precipitation, MM = Missing Value Source: NWS Daily Summary

Daily Weather History Graph

Daily Weather History Graph

Search for Another Location

Airport:

Trip Planner

Search our weather history database for the weather conditions in past years. The results will help you decide how hot, cold, wet, or windy it might be!

Date:

Astronomy

May. 20, 2012 Rise Set
Actual Time 5:37 AM EDT 8:11 PM EDT
Civil Twilight 5:06 AM EDT 8:42 PM EDT
Nautical Twilight 4:27 AM EDT 9:21 PM EDT
Astronomical Twilight 3:44 AM EDT 10:04 PM EDT
Moon 5:16 AM EDT (5/20) 8:07 PM EDT (5/20)
Length of Visible Light 15h 35m
Length of Day
14h 33m
Waning Crescent, 0% of the Moon is Illuminated
May 20
Waning Crescent
May 20
New
May 28
First Quarter
Jun 4
Full
Jun 11
Last Quarter

Hourly Weather History & Observations

Time (EDT) Temp. Dew Point Humidity Pressure Visibility Wind Dir Wind Speed Gust Speed Precip Events Conditions
12:00 AM 51.1 °F 44.1 °F 77% 30.16 in 10.0 mi Calm Calm - N/A   Clear
1:00 AM 48.9 °F 44.1 °F 83% 30.16 in 10.0 mi Calm Calm - N/A   Clear
2:00 AM 48.9 °F 44.1 °F 83% 30.14 in 10.0 mi Calm Calm - N/A   Clear
4:00 AM 54.0 °F 45.0 °F 72% 30.13 in 10.0 mi Calm Calm - N/A   Clear
6:00 AM 48.9 °F 45.0 °F 86% 30.16 in 10.0 mi North 4.6 mph - N/A   Clear
8:00 AM 64.9 °F 43.0 °F 45% 30.18 in 10.0 mi ENE 12.7 mph - N/A   Clear
9:00 AM 69.1 °F 37.0 °F 31% 30.19 in 10.0 mi NE 9.2 mph - N/A   Clear
10:00 AM 72.0 °F 30.0 °F 21% 30.19 in 10.0 mi ENE 15.0 mph 18.4 mph N/A   Clear
11:00 AM 73.0 °F 30.9 °F 21% 30.20 in 10.0 mi ENE 17.3 mph 24.2 mph N/A   Clear
12:00 PM 73.9 °F 50.0 °F 43% 30.21 in 10.0 mi East 17.3 mph 24.2 mph N/A   Clear
1:00 PM 75.0 °F 55.0 °F 50% 30.21 in 10.0 mi ENE 17.3 mph 26.5 mph N/A   Clear
2:00 PM 75.0 °F 57.0 °F 53% 30.20 in 10.0 mi East 16.1 mph 25.3 mph N/A   Clear
3:00 PM 75.0 °F 57.9 °F 55% 30.21 in 10.0 mi East 18.4 mph 25.3 mph N/A   Scattered Clouds
4:00 PM 69.8 °F 59.0 °F 68% 30.21 in 10.0 mi ENE 18.4 mph - N/A   Overcast
4:06 PM 69.1 °F 59.0 °F 70% 30.20 in 10.0 mi ENE 17.3 mph - N/A   Overcast
4:42 PM 66.2 °F 59.0 °F 78% 30.20 in 10.0 mi East 10.4 mph - N/A   Overcast
5:00 PM 66.9 °F 59.0 °F 76% 30.19 in 10.0 mi ENE 11.5 mph - N/A   Overcast
6:00 PM 64.9 °F 57.9 °F 78% 30.20 in 10.0 mi ENE 11.5 mph - N/A   Overcast
7:20 PM 62.6 °F 57.2 °F 82% 30.21 in 10.0 mi East 10.4 mph - N/A   Overcast
8:00 PM 61.0 °F 57.9 °F 90% 30.21 in 10.0 mi ENE 10.4 mph - N/A   Overcast
9:00 PM 61.0 °F 57.0 °F 87% 30.20 in 10.0 mi ENE 9.2 mph - N/A   Overcast
10:00 PM 60.1 °F 57.0 °F 90% 30.22 in 10.0 mi ENE 8.1 mph - N/A   Overcast
11:00 PM 60.1 °F 57.0 °F 90% 30.19 in 9.0 mi ENE 11.5 mph - N/A   Overcast